Starlink 30162

operational
NORAD ID: 57446 Int'l Des: 2023-105 Owner: SPXS Country: US Constellation: starlink
LEOCIRCULAR

Starlink 30162について

説明を読み込み中...

リアルタイム位置

3D地球を読み込み中...

次回通過

高度履歴

Altitude vs Time

uPlot chart will show altitude changes over time

軌道要素

1 57446U 23105S 26035.12240737 .00000587 00000-0 58525-4 0 9998
2 57446 43.0035 71.0931 0000974 274.1085 85.9646 15.02530577140661
Epoch: Feb 4, 2026 • Age: 11 hours

現在のステータス

高度 571.8 km
速度 7.58 km/s
衛星直下点 -43.14°S, 3.93°W
打ち上げ日 Jul 24, 2023
運用期間 2.5 years
タイプ internet

技術仕様

分類 Payload
質量 730.00 kg
乾燥質量 700.00 kg
総質量 730.00 kg
長さ 0.30 m
直径 4.10 m
スパン 29.00 m
形状 Box + pan
製造者 SPXS
バスタイプ Starlink V2M
フェーズステータス In Orbit
所有者/国 SPXS/US

大規模コンステレーション

Loading constellations...